Location: Austin
(30.3000°N, 97.7500°W)
Time: 03:58:01
(UTC-05:00)

SL-16 R/B - Pass Details

Date: 18 March 2023
Orbit: 842 x 845 km, 71.0° (Epoch: 01 April)

Event Time Altitude Azimuth Distance (km) Brightness Sun altitude
Rises 20:37:15 0° 339° (NNW) 3,406 5.7 -12.9°
Reaches altitude 10° 20:39:42 10° 339° (NNW) 2,468 5.0 -13.4°
Maximum altitude 20:45:23 86° 251° (WSW) 850 2.2 -14.6°
Drops below altitude 10° 20:51:01 10° 163° (SSE) 2,454 4.4 -15.9°
Sets 20:53:27 0° 163° (SSE) 3,385 5.1 -16.4°
